24h Messdaten per 29.12.2017 um 22:07:36

Datum Zeit Luftdruck Temp Balkon Feuchte Balkon Temp Strasse Feuchte Strasse Wind km/h Wind Boe Wind aus (Grad) Regen l/15min Licht Lux Sonne h/Monat
29.12.17 22:07:36 993 0.0
29.12.17 22:02:36 993 0.0 0 64.46
29.12.17 21:57:36 993 3.4 25 5.2 99 0.0 0 64.46
29.12.17 21:52:36 993 0.0 0 64.46
29.12.17 21:47:36 993 0.0 0 64.46
29.12.17 21:42:36 993 4.3 9.7 112.5 0.0 0 64.46
29.12.17 21:37:37 993 5.0 99 4.3 9.7 112.5 0.0 0 64.46
29.12.17 21:32:37 993 4.3 9.7 112.5 0.0 0 64.46
29.12.17 21:27:37 993 4.3 9.7 112.5 0.0 0 64.46
29.12.17 21:22:36 993 3.2 36 0.0 0 64.46
29.12.17 21:17:36 992 4.3 7.9 337.5 0.0 0 64.46
29.12.17 21:12:36 992 4.3 0.0 112.5 0.0 0 64.46
29.12.17 21:07:37 992 4.3 0.0 112.5 0.0 0 64.46
29.12.17 21:02:37 992 4.0 4.3 112.5 0.0 0 64.46
29.12.17 20:57:37 992 4.0 2.9 22.5 0.7 0 64.46
29.12.17 20:52:36 992 4.0 2.9 22.5 0.0 0 64.46
29.12.17 20:47:36 2.9 4.3 67.5 0.0 0 64.46
29.12.17 20:42:36 992 4.3 3.6 22.5 0.0 0 64.46
29.12.17 20:37:37 991 4.3 3.6 22.5 0.0 0 64.46
29.12.17 20:32:37 991 4.3 6.8 90 0.0 0 64.46
29.12.17 20:27:37 991 3.2 1.4 45 0.0 0 64.46
29.12.17 20:22:36 991 3.2 1.4 45 0.0 0 64.46
29.12.17 20:17:36 991 2.9 10.1 112.5 0.0 0 64.46
29.12.17 20:12:36 991 3.2 3.2 112.5 0.0 0 64.46
29.12.17 20:07:37 991 3.2 3.2 112.5 0.0 0 64.46
29.12.17 20:02:37 991 3.6 9.4 112.5 0.0 0 64.46
29.12.17 19:57:37 991 5.8 2.9 67.5 0.0 0 64.46
29.12.17 19:52:36 990 5.8 2.9 67.5 0.0 0 64.46
29.12.17 19:47:36 990 6.1 10.1 157.5 0.0
29.12.17 19:42:36 990 5.4 4.7 112.5 0.0 0 64.46
29.12.17 19:37:37 5.4 4.7 112.5 0.0 0 64.46
29.12.17 19:32:37 990 5.4 0.0 67.5 0.0 0 64.46
29.12.17 19:27:37 990 5.8 10.1 112.5 0.0
29.12.17 19:22:36 990 5.8 10.1 112.5 0.0 0 64.46
29.12.17 19:17:36 990 6.1 14.4 112.5 0.0
29.12.17 19:12:36 990 6.1 7.6 315 0.0 0 64.46
29.12.17 19:07:37 990 6.1 7.6 315 0.0 0 64.46
29.12.17 19:02:37 990 6.1 8.3 112.5 0.0 0 64.46
29.12.17 18:57:37 990 7.2 7.6 157.5 0.0 0 64.46
29.12.17 18:52:36 990 2.4 20 7.2 7.6 157.5 0.0 0 64.46
29.12.17 18:47:36 990 2.4 20 6.8 10.8 67.5 0.0 0 64.46
29.12.17 18:42:36 990 2.4 20 4.7 7.2 270 0.0 0 64.46
29.12.17 18:37:37 989 4.7 7.2 270 0.0
29.12.17 18:32:37 989 5.8 4.0 135 0.0 0 64.46
29.12.17 18:27:37 989 6.1 12.6 337.5 0.0 0 64.46
29.12.17 18:22:36 989 6.1 12.6 337.5 0.0 0 64.46
29.12.17 18:17:36 989 5.7 78 6.1 4.3 112.5 0.0 0 64.46
29.12.17 18:12:36 989 5.4 6.5 67.5 0.0 0 64.46
29.12.17 18:07:37 989 4.1 95 5.4 6.5 67.5 0.0
29.12.17 18:02:37 989 4.1 95 5.4 9.7 135 0.0 0 64.46
29.12.17 17:57:37 989 4.0 95 4.3 5.0 90 0.7
29.12.17 17:52:36 989 4.0 95 4.3 5.0 90 0.0 0 64.46
29.12.17 17:47:36 989 3.9 95 4.0 4.3 67.5 0.0 0 64.46
29.12.17 17:42:36 989 0.0 0 64.46
29.12.17 17:37:36 989 0.0 0 64.46
29.12.17 17:32:36 989 0.0 0 64.46
29.12.17 17:27:36 989 0.0 0 64.46
29.12.17 17:22:36 989 0.0 3 64.46
29.12.17 17:17:36 989 3.8 96 0.0 4 64.46
29.12.17 17:12:36 989 0.0 12 64.46
29.12.17 17:07:36 989 0.0 15 64.46
29.12.17 17:02:36 989 3.7 97 0.0 25 64.46
29.12.17 16:57:36 989 0.0 35 64.46
29.12.17 16:52:36 990 3.7 97 0.0 42 64.46
29.12.17 16:47:36 990 0.0 68 64.46
29.12.17 16:42:36 990 0.0 101 64.46
29.12.17 16:37:36 990 0.0 126 64.46
29.12.17 16:32:36 990 3.5 97 0.0 204 64.46
29.12.17 16:27:36 990 3.5 97 0.0 229 64.46
29.12.17 16:22:36 990 0.0
29.12.17 16:17:36 990 0.0 625 64.46
29.12.17 16:12:36 990 3.5 97 0.0 1120 64.46
29.12.17 16:07:36 990 3.5 96 0.0
29.12.17 16:02:36 990 0.0 1290 64.46
29.12.17 15:57:36 990 0.0
29.12.17 15:52:36 991 3.3 95 0.0 1150 64.46
29.12.17 15:47:36 991 0.0 1460 64.46
29.12.17 15:42:36 991 0.0 1850 64.46
29.12.17 15:37:36 991 3.5 91 0.0 1850 64.46
29.12.17 15:32:36 991 0.7 1070 64.46
29.12.17 15:27:36 991 0.0 1080 64.46
29.12.17 15:22:37 991 0.0 1380 64.46
29.12.17 15:17:37 991 0.0 2280 64.46
29.12.17 15:12:36 991 3.9 85 0.0 1990 64.46
29.12.17 15:07:36 991 0.0
29.12.17 15:02:36 991 0.0 2260 64.46
29.12.17 14:57:36 991 3.9 85 0.0 2060 64.46
29.12.17 14:52:36 992 0.0 2270 64.46
29.12.17 14:47:36 992 0.0 2260 64.46
29.12.17 14:42:36 992 0.0 2380 64.46
29.12.17 14:37:37 992 0.0 2360 64.46
29.12.17 14:32:37 992 0.0 2320 64.46
29.12.17 14:27:37 992 0.0 2260 64.46
29.12.17 14:22:37 992 0.0 2050 64.46
29.12.17 14:17:36 993 4.1 83 0.0 1980 64.46
29.12.17 14:12:36 993 0.0 2180 64.46
29.12.17 14:07:37 993 4.2 82 0.0 2440 64.46
29.12.17 14:02:37 993 4.1 81 0.0 2150 64.46
29.12.17 13:57:37 993 4.2 81 0.0 2370 64.46
29.12.17 13:52:37 994 4.2 80 0.0 2630 64.46
29.12.17 13:47:37 994 4.1 80 0.0 2680 64.46
29.12.17 13:42:37 994 4.1 80 0.0 2740 64.46
29.12.17 13:37:36 994 4.1 80 0.0 4080 64.46
29.12.17 13:32:36 994 4.1 80 4.0 2.2 202.5 0.0 4510 64.46
29.12.17 13:27:36 995 4.0 2.2 202.5 0.0 5530 64.46
29.12.17 13:22:37 995 4.0 2.2 202.5 0.0 5520 64.46
29.12.17 13:17:37 995 4.3 7.6 112.5 0.0 4900 64.46
29.12.17 13:12:36 995 5.0 6.5 67.5 0.0 3610 64.46
29.12.17 13:07:36 995 5.0 6.5 67.5 0.0 3960 64.46
29.12.17 13:02:36 995 5.0 4.0 157.5 0.0
29.12.17 12:57:36 995 4.3 2.2 247.5 0.0 4860 64.46
29.12.17 12:52:37 995 4.3 2.2 247.5 0.0 6020 64.46
29.12.17 12:47:37 996 4.0 4.7 180 0.0 6050 64.46
29.12.17 12:42:37 996 2.9 1.4 157.5 0.0 5870 64.46
29.12.17 12:37:36 996 2.9 1.4 157.5 0.0 6470 64.46
29.12.17 12:32:36 996 2.9 2.9 157.5 0.0 6320 64.46
29.12.17 12:27:36 996 2.2 3.2 225 0.0
29.12.17 12:22:37 996 2.2 3.2 225 0.0 6510 64.46
29.12.17 12:17:37 996 1.1 7.6 135 0.0 6530 64.46
29.12.17 12:12:37 996 2.5 1.8 180 0.0 6510 64.46
29.12.17 12:07:37 996 5.6 78 2.5 1.8 180 0.0 7170 64.46
29.12.17 12:02:37 996 3.2 2.2 135 0.0 8430 64.46
29.12.17 11:57:37 996 3.2 4.7 90 0.0 8100 64.46
29.12.17 11:52:37 996 3.8 81 3.2 4.7 90 0.0 6830 64.46
29.12.17 11:47:37 996 3.8 81 2.9 4.3 337.5 0.0 7360 64.46
29.12.17 11:42:37 997 3.8 81 2.2 3.6 22.5 0.0 8550 64.46
29.12.17 11:37:36 997 3.8 80 2.2 3.6 22.5 0.0 8450 64.46
29.12.17 11:32:36 997 3.2 4.7 225 0.0 8570 64.46
29.12.17 11:27:36 997 3.2 4.7 22.5 0.0 9780 64.46
29.12.17 11:22:37 997 3.2 4.7 22.5 0.0 9000 64.46
29.12.17 11:17:37 997 4.0 2.2 315 0.0
29.12.17 11:12:37 997 3.6 82 5.0 12.2 45 0.0 9650 64.46
29.12.17 11:07:37 997 3.4 83 5.0 12.2 45 0.0 9200 64.46
29.12.17 11:02:37 997 5.0 12.2 45 0.0 8370 64.46
29.12.17 10:57:37 997 5.8 4.7 135 0.0 7800 64.46
29.12.17 10:52:36 997 2.1 20 3.2 83 5.8 4.7 135 0.0 7900 64.46
29.12.17 10:47:36 997 1.5 20 5.8 8.6 135 0.0 7760 64.46
29.12.17 10:42:36 997 1.5 20 5.0 12.6 157.5 0.0 6930 64.46
29.12.17 10:37:37 998 5.0 12.6 157.5 0.0 6710 64.46
29.12.17 10:32:37 998 3.0 84 5.8 3.6 247.5 0.0 6050 64.46
29.12.17 10:27:37 998 7.9 10.1 90 0.0
29.12.17 10:22:36 998 2.9 85 7.9 10.1 90 0.0 5950 64.46
29.12.17 10:17:36 998 2.8 85 7.9 9.4 67.5 0.0 6310 64.46
29.12.17 10:12:36 998 2.7 85 6.1 6.8 22.5 0.0 6160 64.46
29.12.17 10:07:37 998 1.4 20 2.7 85 6.1 6.8 22.5 0.0 5960 64.46
29.12.17 10:02:37 998 1.2 20 2.6 85 6.1 15.1 112.5 0.0 5230 64.46
29.12.17 09:57:37 998 1.0 20 2.6 85 5.0 9.7 225 0.0 4710 64.46
29.12.17 09:52:36 998 2.5 86 5.0 9.7 225 0.0
29.12.17 09:47:36 998 2.5 86 5.4 4.7 247.5 0.0 4250 64.46
29.12.17 09:42:36 998 2.4 86 6.1 6.1 315 0.0 4210 64.46
29.12.17 09:37:37 999 2.3 86 6.1 6.1 315 0.0 4010 64.46
29.12.17 09:32:37 999 2.2 87 5.8 9.4 90 0.0 3730 64.46
29.12.17 09:27:37 999 2.2 87 6.8 14.8 225 0.0 3010 64.46
29.12.17 09:22:36 999 0.6 20 2.2 87 6.8 14.8 225 0.0 2820 64.46
29.12.17 09:17:36 999 0.4 20 2.1 87 7.2 10.4 337.5 0.0 2480 64.46
29.12.17 09:12:36 999 0.2 20 2.1 87 5.4 9.0 112.5 0.0 2090 64.46
29.12.17 09:07:37 999 0.6 20 5.4 9.0 112.5 0.0 2030 64.46
29.12.17 09:02:37 999 0.4 20 2.0 87 4.7 8.6 112.5 0.0 1840 64.46
29.12.17 08:57:37 999 0.4 20 2.1 87 5.0 9.0 67.5 0.0 1580 64.46
29.12.17 08:52:36 999 0.2 20 2.0 87 5.0 9.0 67.5 0.0 1430 64.46
29.12.17 08:47:36 999 0.2 20 2.1 87 5.0 5.8 45 0.0 1110 64.46
29.12.17 08:42:36 999 0.4 20 2.1 87 4.0 5.8 135 0.0 671 64.46
29.12.17 08:37:38 999 0.6 20 2.1 87 4.0 5.8 135 0.0 575 64.46
29.12.17 08:32:37 999 0.2 20 2.1 87 4.0 3.6 157.5 0.0 389 64.46
29.12.17 08:27:37 999 0.4 20 2.1 87 4.3 4.0 112.5 0.0 245 64.46
29.12.17 08:22:36 999 2.1 87 4.3 4.0 112.5 0.0 101 64.46
29.12.17 08:17:36 999 2.1 87 4.0 5.4 180 0.0 71 64.46
29.12.17 08:12:36 999 4.3 7.6 135 0.0 0 64.46
29.12.17 08:07:38 999 0.5 20 2.1 87 4.3 7.6 135 0.0 0 64.46
29.12.17 08:02:38 999 0.7 20 2.1 87 3.6 9.4 135 0.0 0 64.46
29.12.17 07:57:37 999 0.5 20 2.1 87 2.2 5.0 112.5 0.0 0 64.46
29.12.17 07:52:36 999 0.0 20 2.1 87 2.2 5.0 112.5 0.0 0 64.46
29.12.17 07:47:36 999 0.3 20 2.0 87 2.5 4.3 135 0.0 0 64.46
29.12.17 07:42:36 999 0.3 20 2.0 87 3.2 7.2 135 0.0 0 64.46
29.12.17 07:37:38 999 0.4 20 2.0 87 3.2 7.2 135 0.0 0 64.46
29.12.17 07:32:38 999 0.6 20 2.1 87 3.2 2.2 112.5 0.0 0 64.46
29.12.17 07:27:38 999 0.3 20 2.1 88 2.9 9.7 135 0.0 0 64.46
29.12.17 07:22:36 999 0.1 20 2.0 88 2.9 9.7 135 0.0 0 64.46
29.12.17 07:17:36 999 0.3 20 2.0 88 4.0 4.3 45 0.0 0 64.46
29.12.17 07:12:36 999 0.4 20 2.1 89 4.0 2.9 67.5 0.0 0 64.46
29.12.17 07:07:36 999 2.0 89 4.0 2.9 67.5 0.0 0 64.46
29.12.17 07:02:36 1000 2.0 89 4.3 10.8 135 0.0 0 64.46
29.12.17 06:57:36 1000 2.0 89 2.9 7.2 135 0.0 0 64.46
29.12.17 06:52:36 999 0.5 20 2.0 90 2.9 7.2 135 0.0 0 64.46
29.12.17 06:47:36 1000 0.2 20 2.0 90 2.9 4.0 157.5 0.0 0 64.46
29.12.17 06:42:36 1000 0.3 20 2.0 90 2.9 4.3 135 0.0 0 64.46
29.12.17 06:37:36 1000 0.3 20 2.0 90 2.9 4.3 135 0.0 0 64.46
29.12.17 06:32:36 1000 0.4 20 2.0 90 2.9 7.2 112.5 0.0 0 64.46
29.12.17 06:27:36 1000 0.2 20 2.0 91 4.0 3.2 135 0.0 0 64.46
29.12.17 06:22:36 1000 0.4 20 2.0 91 4.0 3.2 135 0.0 0 64.46
29.12.17 06:17:36 1000 0.3 20 1.9 92 4.7 9.0 135 0.0 0 64.46
29.12.17 06:12:36 1000 0.3 20 1.9 92 4.7 10.4 112.5 0.0 0 64.46
29.12.17 06:07:36 1000 1.9 93 4.7 10.4 112.5 0.0 0 64.46
29.12.17 06:02:36 1000 4.3 4.3 135 0.0 0 64.46
29.12.17 05:57:36 1000 1.8 94 3.6 6.8 112.5 0.0 0 64.46
29.12.17 05:52:37 1000 1.8 94 3.6 6.8 112.5 0.0 0 64.46
29.12.17 05:47:37 1000 1.8 94 4.0 2.9 247.5 0.0 0 64.46
29.12.17 05:42:37 1000 1.8 95 4.0 2.9 45 0.0 0 64.46
29.12.17 05:37:36 1000 -0.4 20 1.7 95 4.0 2.9 45 0.0 0 64.46
29.12.17 05:32:36 1000 -0.4 20 4.3 2.9 135 0.0 0 64.46
29.12.17 05:27:36 1000 0.1 20 1.7 95 4.7 7.2 135 0.0 0 64.46
29.12.17 05:22:37 1000 0.0 20 1.8 95 4.7 7.2 135 0.0 0 64.46
29.12.17 05:17:37 1000 0.0 20 1.7 95 4.7 9.0 67.5 0.0 0 64.46
29.12.17 05:12:37 1000 0.0 20 1.7 95 3.6 2.9 67.5 0.0 0 64.46
29.12.17 05:07:36 1000 -0.4 20 1.7 95 3.6 2.9 67.5 0.0 0 64.46
29.12.17 05:02:36 1000 -0.3 20 1.7 96 3.6 2.9 67.5 0.0 0 64.46
29.12.17 04:57:36 1000 -0.3 20 1.7 96 3.2 4.0 135 0.0 0 64.46
29.12.17 04:52:37 1000 -0.3 20 1.7 96 3.2 4.0 135 0.0 0 64.46
29.12.17 04:47:37 1000 -0.3 20 1.7 95 3.6 7.6 112.5 0.0 0 64.46
29.12.17 04:42:37 1000 -0.3 20 1.7 95 2.9 9.7 112.5 0.0 0 64.46
29.12.17 04:37:36 1000 -0.3 20 1.7 95 2.9 9.7 112.5 0.0 0 64.46
29.12.17 04:32:36 1000 -0.4 20 1.8 95 3.2 2.9 315 0.0 0 64.46
29.12.17 04:27:36 1000 -0.3 20 1.8 95 3.6 4.7 90 0.0 0 64.46
29.12.17 04:22:37 1000 -0.2 20 1.9 95 3.6 4.7 90 0.0 0 64.46
29.12.17 04:17:36 1000 -0.1 20 1.8 95 3.6 4.7 67.5 0.0 0 64.46
29.12.17 04:12:36 1000 0.0 20 1.9 95 2.5 2.9 315 0.0 0 64.46
29.12.17 04:07:36 1000 -0.2 20 1.9 95 2.5 2.9 315 0.0 0 64.46
29.12.17 04:02:36 1000 0.0 20 2.5 4.7 112.5 0.0 0 64.46
29.12.17 03:57:36 1000 0.0 20 1.9 95 2.9 3.6 45 0.0 0 64.46
29.12.17 03:52:37 1000 1.9 94 2.9 3.6 45 0.0 0 64.46
29.12.17 03:47:37 1000 1.9 94 2.2 5.4 112.5 0.0 0 64.46
29.12.17 03:42:36 1000 1.9 94 2.9 3.6 135 0.0 0 64.46
29.12.17 03:37:36 1000 1.9 94 2.9 3.6 135 0.0 0 64.46
29.12.17 03:32:36 1000 1.9 94 2.2 2.9 67.5 0.0 0 64.46
29.12.17 03:27:36 1000 1.9 94 3.6 2.9 135 0.0 0 64.46
29.12.17 03:22:37 1000 1.9 94 3.6 2.9 135 0.0 0 64.46
29.12.17 03:17:37 1000 1.9 94 3.6 7.2 135 0.0 0 64.46
29.12.17 03:12:37 1000 1.9 94 2.9 6.8 112.5 0.0 0 64.46
29.12.17 03:07:36 1000 1.9 93 2.9 6.8 112.5 0.0 0 64.46
29.12.17 03:02:36 1000 1.9 93 2.5 5.8 157.5 0.0 0 64.46
29.12.17 02:57:36 1000 1.9 93 3.6 2.2 270 0.0 0 64.46
29.12.17 02:52:35 1000 1.9 93 3.6 2.2 270 0.0 0 64.46
29.12.17 02:47:35 1000 1.9 93 3.6 4.3 112.5 0.0 0 64.46
29.12.17 02:42:35 1000 1.9 93 3.6 7.9 90 0.0 0 64.46
29.12.17 02:37:36 1000 2.0 93 3.6 7.9 90 0.0 0 64.46
29.12.17 02:32:35 1000 2.0 93 3.6 6.5 135 0.0 0 64.46
29.12.17 02:27:35 1000 2.0 93 4.0 4.7 157.5 0.0 0 64.46
29.12.17 02:22:36 1000 2.0 92 4.0 4.7 157.5 0.0 0 64.46
29.12.17 02:17:36 1000 2.0 92 4.3 1.4 225 0.0 0 64.46
29.12.17 02:12:36 1000 2.0 92 4.3 6.8 112.5 0.0 0 64.46
29.12.17 02:07:36 1000 2.0 92 4.3 6.8 112.5 0.0 0 64.46
29.12.17 02:02:36 1000 2.0 92 4.3 6.8 112.5 0.0 0 64.46
29.12.17 01:57:36 1000 2.0 92 3.6 10.1 22.5 0.0 0 64.46
29.12.17 01:52:36 1000 2.0 92 3.6 10.1 22.5 0.0 0 64.46
29.12.17 01:47:36 1000 2.1 92 4.7 3.6 157.5 0.0 0 64.46
29.12.17 01:42:36 1000 2.1 92 5.0 5.0 112.5 0.0 0 64.46
29.12.17 01:37:36 1000 2.1 92 5.0 5.0 112.5 0.0 0 64.46
29.12.17 01:32:36 1000 2.1 92 5.0 9.0 112.5 0.0 0 64.46
29.12.17 01:27:36 1000 2.1 91 4.7 10.1 67.5 0.0 0 64.46
29.12.17 01:22:36 1000 2.1 91 4.7 10.1 67.5 0.0 0 64.46
29.12.17 01:17:36 1000 2.2 91 4.3 4.0 22.5 0.0 0 64.46
29.12.17 01:12:36 1000 2.2 91 4.3 2.2 112.5 0.0 0 64.46
29.12.17 01:07:36 1000 2.2 91 4.3 2.2 112.5 0.0 0 64.46
29.12.17 01:02:36 1000 2.3 91 5.0 6.8 67.5 0.0 0 64.46
29.12.17 00:57:36 999 2.3 91 5.8 11.9 67.5 0.0 0 64.46
29.12.17 00:52:36 999 2.3 91 5.8 11.9 67.5 0.0 0 64.46
29.12.17 00:47:36 999 2.4 91 5.8 12.2 180 0.0 0 64.46
29.12.17 00:42:36 999 2.4 91 4.3 6.8 135 0.0 0 64.46
29.12.17 00:37:37 999 2.4 91 4.3 6.8 135 0.0 0 64.46
29.12.17 00:32:37 999 2.4 92 3.6 2.5 22.5 0.0 0 64.46
29.12.17 00:27:36 999 2.5 92 3.6 4.0 112.5 0.0 0 64.46
29.12.17 00:22:36 999 2.5 92 3.6 4.0 112.5 0.0 0 64.46
29.12.17 00:17:36 999 2.5 92 4.7 7.9 247.5 0.0 0 64.46
29.12.17 00:12:36 999 2.5 92 3.2 5.4 67.5 0.0 0 64.46
29.12.17 00:07:36 999 2.5 92 3.2 5.4 67.5 0.0 0 64.46
29.12.17 00:02:36 999 2.5 92 3.6 4.0 112.5 0.0 0 64.46
28.12.17 23:57:36 999 2.5 92 4.0 2.9 112.5 0.0 0 64.46
28.12.17 23:52:37 999 2.5 92 4.0 2.9 112.5 0.0 0 64.46
28.12.17 23:47:37 999 2.5 92 5.4 1.4 90 0.0 0 64.46
28.12.17 23:42:37 999 2.5 92 5.0 6.5 112.5 0.0 0 64.46
28.12.17 23:37:36 999 2.5 92 5.0 6.5 112.5 0.0 0 64.46
28.12.17 23:32:36 999 2.5 92 4.7 8.3 112.5 0.0 0 64.46
28.12.17 23:27:36 999 2.5 92 3.6 4.0 112.5 0.0 0 64.46
28.12.17 23:22:37 999 2.5 92 3.6 4.0 112.5 0.0 0 64.46
28.12.17 23:17:37 999 2.5 92 4.3 5.8 112.5 0.0
28.12.17 23:12:37 999 4.7 3.6 112.5 0.0 0 64.46
28.12.17 23:07:37 999 2.5 92 4.7 3.6 112.5 0.0 0 64.46
28.12.17 23:02:37 999 2.5 91 4.7 3.6 112.5 0.0 0 64.46
28.12.17 22:57:37 999 2.5 91 5.4 7.9 180 0.0 0 64.46
28.12.17 22:52:35 998 2.5 92 5.4 7.9 180 0.0 0 64.46
28.12.17 22:47:35 998 2.6 91 4.3 6.1 135 0.0 0 64.46
28.12.17 22:42:35 998 2.6 92 4.0 6.1 67.5 0.0 0 64.46
28.12.17 22:37:36 998 0.7 20 2.6 92 4.0 6.1 67.5 0.0 0 64.46
28.12.17 22:32:36 998 1.0 20 2.6 92 4.0 4.3 202.5 0.0 0 64.46
28.12.17 22:27:36 998 1.0 20 2.6 92 4.0 2.5 112.5 0.0 0 64.46
28.12.17 22:22:35 998 2.6 92 4.0 2.5 112.5 0.0 0 64.46
28.12.17 22:17:35 998 2.6 92 4.0 10.8 247.5 0.0 0 64.46
28.12.17 22:12:35 998 4.7 8.6 112.5 0.0 0 64.46
28.12.17 22:07:36 998 2.7 91 4.7 8.6 112.5 0.0 0 64.46
Index
© 2002-2012 Thomas Dreßler
Alle Rechte vorbehalten
letzte Scriptänderung 12.11.2012